ARIANE 1 DEB, 25767

Orbit data source: Space-Track

ARIANE 1 DEB, 25767 is space debris in LEO originally from a launch on Mon, 24 Dec 1979 UTC launched from the French Guiana (FRGUI). Debris objects in space refer to the collection of defunct objects orbiting the Earth. Examples of debris include non-operational satellites, rocket bodies, and fragments generated from explosions, collisions, or faulty payload assembly.

Loading next visibility...
Identifier
25767, 1979-104J
Orbit
LEO
Country
Flag of FRFR
Related business
Manufacturer
Unknown
Mission
Spacecraft
Bus & Motor
Unknown
Mass
Unknown
Launch date (UTC)
1979-12-24 (46 years ago)
Launch vehicle
Unknown
Launch site
French Guiana (FRGUI)
Object type
Payload
Rocket body
Debris
Shape & HBR
Unknown shape, 0.3 m
Radar Cross Section
Medium (>0.1 m² and <1 m²)

Expand to show TLE details & history
Last TLE update: 1 day ago

TLE from 1 day ago
0 ARIANE 1 DEB
1 25767U 79104J   26061.30832087  .00083158  00000-0  52512-2 0  9996
2 25767  17.8064 137.7526 2430064 160.7222 210.3869 10.44567805371993
Epoch: 2026-03-02T07:23Z
TLE epoch observation values (Epoch: 2026-03-02T07:23:58.923Z)
Latitude
-0°
Longitude
-133.34651°
Altitude
4,412.312 km
Speed
5.368 km/s
True Right ascension
09h 11m 00s
True Declination
0° 00' 00"
Sunlit
Object was in full shadow at epoch
Visualization orbit readout
Latitude
Unknown
Longitude
Unknown
Altitude
Unknown
Speed
Unknown
Apparent Right ascension
Unknown
Apparent Declination
Unknown
Sunlit
N/A
Visualization observer readout
Local Sidereal Time
19:09:00
Azimuth
Unknown
Elevation
Unknown
Doppler factor
Unknown
Orbital elements
Apogee altitude
4,615.675 km
Perigee altitude
317.118 km
Semi-major axis
8,844.534 km
Eccentricity
0.24301
Inclination
17.8064°
RAAN
137.7526°
Arg. of periapsis
160.7222°
True anomaly
199.30707°
Mean anomaly
210.3869°
Eccentric anomaly
204.59256°
Mean motion
2.60934 °/min
Orbital period
137.97 mins
BSTAR
0.0052512
Loading maneuver chart data...
Computing Atmospheric mass density...
Loading historical data...
Loading historical data...
Loading historical data...
Loading historical data...
Loading historical data...
Loading historical data...
Loading historical data...

Documentation

Showing up to 5 results
|